Date String (YYYY-MM-DD hh:mm:ss) UTC,Instrument flags,Ambient pressure (hPa),Sample flow (lpm),Bypass flow (lpm),Sample temperature (°C),Ambient temperature (°C),ASC tube jacket temperature (°C),LED temperature (°C),Box temperature (°C),Sample RH (%),Span deviation,Mass concentration (μg/m³),Mass concentration (μg/m³),Mass concentration (μg/m³)
DateTimeUTC,F1_M11,P_M11,Q1_M11,Q2_M11,T1_M11,T2_M11,T3_M11,T4_M11,T5_M11,U1_M11,ZSPAN_M11,X0_M11,X2_M11,X1_M11
2021-11-02 06:00:00,,0833.4,4.99,0.00,23.0,22.2,00.0,32.0,24.8,20.9,0000.0,0010.51,0006.08,0005.54
2021-11-02 06:01:00,,0833.4,5.01,0.00,23.0,22.2,00.0,32.0,24.8,20.9,0000.0,0010.71,0006.16,0005.58
2021-11-02 06:02:00,,0833.4,5.00,0.00,23.0,22.2,00.0,32.0,24.8,20.9,0000.0,0010.81,0006.20,0005.62
2021-11-02 06:03:00,,0833.3,5.00,0.00,23.0,22.2,00.0,32.0,24.8,20.9,0000.0,0011.17,0006.25,0005.64
2021-11-02 06:04:00,,0833.2,4.99,0.00,23.0,22.2,00.0,32.0,24.8,20.9,0000.0,0011.22,0006.29,0005.67
2021-11-02 06:05:00,,0833.3,5.00,0.00,23.0,22.2,00.0,32.0,24.8,20.9,0000.0,0011.06,0006.32,0005.68
2021-11-02 06:06:00,,0833.3,4.99,0.00,23.0,22.2,00.0,32.0,24.8,20.9,0000.0,0011.00,0006.35,0005.69
2021-11-02 06:07:00,,0833.3,5.00,0.00,23.0,22.2,00.0,32.0,24.8,20.9,0000.0,0010.73,0006.29,0005.69
2021-11-02 06:08:00,,0833.2,5.00,0.00,23.0,22.2,00.0,32.0,24.8,21.4,0000.0,0010.73,0006.30,0005.71
2021-11-02 06:09:00,,0833.3,5.01,0.00,23.0,22.2,00.0,32.0,24.8,23.0,0000.0,0011.52,0006.33,0005.73
2021-11-02 06:10:00,,0833.3,4.99,0.00,23.0,22.2,00.0,32.0,24.8,22.2,0000.0,0011.38,0006.35,0005.75
2021-11-02 06:11:00,,0833.3,5.00,0.00,23.0,22.2,00.0,32.0,24.8,21.4,0000.0,0010.49,0006.32,0005.77
2021-11-02 06:12:00,,0833.3,5.01,0.00,23.0,22.2,00.0,32.0,24.8,21.3,0000.0,0010.39,0006.31,0005.78
2021-11-02 06:13:00,,0833.3,4.99,0.00,23.0,22.2,00.0,32.0,24.8,21.2,0000.0,0010.43,0006.35,0005.78
2021-11-02 06:14:00,,0833.3,5.02,0.00,23.0,22.2,00.0,32.0,24.8,21.2,0000.0,0010.34,0006.40,0005.80
2021-11-02 06:15:00,,0833.2,4.99,0.00,23.0,22.2,00.0,32.0,24.8,21.2,0000.0,0010.50,0006.45,0005.81
2021-11-02 06:16:00,,0833.3,5.00,0.00,23.0,22.2,00.0,32.0,24.8,21.2,0000.0,0010.57,0006.46,0005.83
2021-11-02 06:17:00,,0833.3,5.00,0.00,23.0,22.2,00.0,32.0,24.8,21.2,0000.0,0010.69,0006.50,0005.84
2021-11-02 06:18:00,,0833.3,5.00,0.00,23.0,22.2,00.0,32.0,24.8,21.2,0000.0,0010.96,0006.57,0005.86
2021-11-02 06:19:00,,0833.3,5.02,0.00,23.0,22.2,00.0,32.0,24.8,21.3,0000.0,0011.06,0006.59,0005.87
2021-11-02 06:20:00,,0833.4,4.99,0.00,23.0,22.2,00.0,32.0,24.8,21.2,0000.0,0010.40,0006.61,0005.89
2021-11-02 06:21:00,,0833.4,5.01,0.00,23.0,22.2,00.0,32.0,24.8,21.2,0000.0,0009.98,0006.62,0005.90
2021-11-02 06:22:00,,0833.5,4.99,0.00,23.0,22.2,00.0,32.0,24.8,21.2,0000.0,0010.16,0006.68,0005.90
2021-11-02 06:23:00,,0833.4,5.00,0.00,23.0,22.2,00.0,32.0,24.8,21.3,0000.0,0010.21,0006.71,0005.91
2021-11-02 06:24:00,,0833.4,5.00,0.00,23.0,22.2,00.0,32.0,24.8,21.3,0000.0,0010.17,0006.70,0005.93
2021-11-02 06:25:00,,0833.4,5.00,0.00,23.0,22.2,00.0,32.0,24.8,21.3,0000.0,0010.20,0006.72,0005.94
2021-11-02 06:26:00,,0833.4,5.00,0.00,23.0,22.2,00.0,32.0,24.8,21.3,0000.0,0010.32,0006.73,0005.95
2021-11-02 06:27:00,,0833.3,5.00,0.00,23.0,22.2,00.0,32.0,24.8,21.3,0000.0,0010.44,0006.75,0005.95
2021-11-02 06:28:00,,0833.3,5.01,0.00,23.0,22.2,00.0,32.0,24.8,21.3,0000.0,0010.33,0006.72,0005.95
2021-11-02 06:29:00,,0833.2,5.00,0.00,22.9,22.2,00.0,32.0,24.8,21.3,0000.0,0010.35,0006.73,0005.97
2021-11-02 06:30:00,,0833.2,4.99,0.00,22.9,22.1,00.0,32.0,24.8,21.3,0000.0,0010.87,0006.80,0005.99
2021-11-02 06:31:00,,0833.3,5.01,0.00,22.9,22.1,00.0,32.0,24.8,21.4,0000.0,0010.89,0006.83,0006.01
2021-11-02 06:32:00,,0833.3,5.00,0.00,22.9,22.1,00.0,32.0,24.8,21.4,0000.0,0011.23,0006.92,0006.04
2021-11-02 06:33:00,,0833.3,5.00,0.00,22.9,22.1,00.0,32.0,24.7,21.3,0000.0,0011.34,0006.97,0006.08
2021-11-02 06:34:00,,0833.3,5.00,0.00,22.9,22.1,00.0,32.0,24.7,21.3,0000.0,0011.45,0007.04,0006.11
2021-11-02 06:35:00,,0833.2,5.01,0.00,22.9,22.2,00.0,32.0,24.7,21.3,0000.0,0011.84,0007.12,0006.14
2021-11-02 06:36:00,,0833.2,5.00,0.00,22.9,22.1,00.0,32.0,24.7,21.4,0000.0,0011.97,0007.16,0006.15
2021-11-02 06:37:00,,0833.2,5.00,0.00,22.9,22.1,00.0,32.0,24.7,21.4,0000.0,0012.14,0007.18,0006.18
2021-11-02 06:38:00,,0833.1,5.01,0.00,22.9,22.1,00.0,32.0,24.7,21.4,0000.0,0012.38,0007.23,0006.22
2021-11-02 06:39:00,,0833.1,5.00,0.00,22.9,22.1,00.0,32.0,24.7,21.4,0000.0,0013.29,0007.29,0006.26
2021-11-02 06:40:00,,0833.1,4.99,0.00,22.9,22.1,00.0,31.9,24.7,21.4,0000.0,0015.01,0007.32,0006.28
2021-11-02 06:41:00,,0833.1,5.01,0.00,22.9,22.2,00.0,31.9,24.7,21.4,0000.0,0014.73,0007.33,0006.30
2021-11-02 06:42:00,,0833.2,4.99,0.00,22.9,22.2,00.0,31.9,24.7,21.5,0000.0,0015.30,0007.33,0006.30
2021-11-02 06:43:00,,0833.2,5.01,0.00,22.9,22.2,00.0,31.9,24.8,21.5,0000.0,0014.94,0007.27,0006.29
2021-11-02 06:44:00,,0833.1,5.01,0.00,22.9,22.2,00.0,31.9,24.7,21.5,0000.0,0014.88,0007.27,0006.29
2021-11-02 06:45:00,,0833.1,4.98,0.00,22.9,22.2,00.0,31.9,24.7,21.5,0000.0,0015.69,0007.27,0006.30
2021-11-02 06:46:00,,0833.1,5.01,0.00,22.9,22.2,00.0,31.9,24.7,21.5,0000.0,0015.86,0007.23,0006.32
2021-11-02 06:47:00,,0833.2,5.00,0.00,22.9,22.1,00.0,31.9,24.8,21.5,0000.0,0015.90,0007.22,0006.34
2021-11-02 06:48:00,,0833.2,5.01,0.00,22.9,22.1,00.0,31.9,24.7,21.5,0000.0,0015.81,0007.25,0006.36
2021-11-02 06:49:00,,0833.2,5.00,0.00,22.9,22.1,00.0,31.9,24.7,21.5,0000.0,0015.76,0007.28,0006.37
2021-11-02 06:50:00,,0833.1,4.99,0.00,22.9,22.1,00.0,31.9,24.7,21.5,0000.0,0015.56,0007.30,0006.38
2021-11-02 06:51:00,,0833.1,4.99,0.00,22.9,22.1,00.0,31.9,24.7,21.5,0000.0,0014.23,0007.33,0006.38
2021-11-02 06:52:00,,0833.1,5.01,0.00,22.9,22.1,00.0,31.9,24.7,21.6,0000.0,0014.02,0007.34,0006.39
2021-11-02 06:53:00,,0833.1,4.99,0.00,22.9,22.1,00.0,31.9,24.7,21.6,0000.0,0014.06,0007.40,0006.41
2021-11-02 06:54:00,,0833.1,5.00,0.00,22.8,22.1,00.0,31.9,24.6,21.6,0000.0,0014.19,0007.47,0006.44
2021-11-02 06:55:00,,0833.1,5.01,0.00,22.8,22.1,00.0,31.9,24.6,21.6,0000.0,0014.75,0007.52,0006.47
2021-11-02 06:56:00,,0833.1,4.99,0.00,22.8,22.1,00.0,31.9,24.6,21.6,0000.0,0014.29,0007.53,0006.49
2021-11-02 06:57:00,,0833.1,5.01,0.00,22.8,22.1,00.0,31.9,24.6,21.6,0000.0,0013.94,0007.58,0006.51
2021-11-02 06:58:00,,0833.0,4.99,0.00,22.8,22.1,00.0,31.9,24.6,21.6,0000.0,0014.92,0007.58,0006.50
2021-11-02 06:59:00,,0833.0,5.00,0.00,22.8,22.1,00.0,31.9,24.6,21.6,0000.0,0014.71,0007.57,0006.51
